Regional Weather Roundup
Issued by NWS

Home | Current Version | Previous Version | Text Only | Print | Product List | Glossary Off
Versions: 1 2 3 4 5 6 7 8 9 10 11 12 13 14 15 16 17 18 19 20 21 22 23 24 25 26 27 28 29 30 31 32 33 34 35 36 37 38 39 40 41 42 43 44 45 46 47 48 49 50

000
ASUS45 KBOU 312107
RWRCO

WEATHER ROUNDUP FOR COLORADO
NATIONAL WEATHER SERVICE DENVER/BOULDER CO
300 PM MDT THU JUL 31 2014

NOTE: "FAIR" INDICATES FEW OR NO CLOUDS BELOW 12000 FEET WITH NO
SIGNIFICANT WEATHER AND/OR OBSTRUCTIONS TO VISIBILITY.

COZ001>005-013-030-031-312200-
...NORTHWEST COLORADO...

CITY           SKY/WX    TMP DP  RH WIND       PRES   REMARKS
CRAIG          MOSUNNY   70  50  49 MISG      30.25F
HAYDEN         MOSUNNY   77  46  33 N7        30.27F
MEEKER         PTSUNNY   79  49  34 N12       30.25F
MOUNT WERNER   NOT AVBL
STEAMBOAT SPGS MOSUNNY   74  47  38 S6        30.29S
WALDEN         MOSUNNY   68  43  40 N7        30.39S
$$

COZ006>008-011-312200-
...WEST CENTRAL VALLEYS...

CITY           SKY/WX    TMP DP  RH WIND       PRES   REMARKS
GRAND JUNCTION MOSUNNY   84  52  33 W10       30.13F
MONTROSE       PTSUNNY   82  54  37 N9        30.20F
EAGLE          PTSUNNY   70  57  64 W12       30.28S
RIFLE          MOSUNNY   81  49  32 W8        30.16F
DELTA          PTSUNNY   91  47  22 W12G25    30.14F
NUCLA          PTSUNNY   82  46  28 NE3       30.23F
$$

COZ017>023-064>068-312200-
...SOUTHWEST COLORADO...

CITY           SKY/WX    TMP DP  RH WIND       PRES   REMARKS
DURANGO        CLOUDY    76  51  41 N16G26    30.25F
CORTEZ         MOSUNNY   86  48  26 NW10      30.19S
PAGOSA SPRINGS TSTM      59  57  92 E7        30.36S
TELLURIDE      NOT AVBL
WOLF CREEK PAS NOT AVBL
$$

COZ009-010-012-014-032>034-037-058>063-312200-
...CENTRAL COLORADO...

CITY           SKY/WX    TMP DP  RH WIND       PRES   REMARKS
ASPEN          PTSUNNY   68  50  52 E5        30.34F
BUENA VISTA    TSTM      61  53  75 CALM      30.40R
COPPER MTN     CLOUDY    54  46  76 S6        30.64S
BERTHOUD PASS  TSTM      36  36 100 E16       30.70R VSB<1/4
COTTONWOOD PAS TSTM      55  52  88 NW5       30.52R
GUNNISON       PTSUNNY   68  46  45 N6        30.35S
KREMMLING      LGT RAIN  70  45  40 CALM      30.35F
LEADVILLE      PTSUNNY   57  48  72 S17       30.46F THUNDER
MONARCH PASS   FOG       46  45  93 NE9       30.72F VSB<1/4
SALIDA         CLOUDY    66  54  66 E13G22    30.43S
SUNLIGHT       PTSUNNY   63  50  63 W5        30.58S
WILKERSON PASS CLOUDY    45  45 100 NE9       30.63F VSB<1/4
$$

COZ069>075-312200-
...SAN LUIS VALLEY/SANGRE DE CRISTO MOUNTAINS...

CITY           SKY/WX    TMP DP  RH WIND       PRES   REMARKS
ALAMOSA        CLOUDY    66  56  70 SW8       30.32S
LA VETA PASS   TSTM      48  46  93 E12       30.53S VSB 1/4
SAGUACHE       CLOUDY    72  46  40 SE10G16   30.34S
$$

COZ035-036-038>040-312200-
...NORTHERN COLORADO FRONT RANGE...

CITY           SKY/WX    TMP DP  RH WIND       PRES   REMARKS
DENVER INTL AP PTSUNNY   74  48  39 SW3       30.28F
DMNS CITY PARK   N/A     75  48  38 E2G9      30.27F
AURORA         PTSUNNY   70  52  53 N3        30.31F
FRONT RANGE AP PTSUNNY   75  48  38 CALM      30.30F
ERIE MUNI ARPT MOSUNNY   75  47  37 CALM      30.27F THUNDER
BOULDER MUN AP MOSUNNY   77  46  33 SE3       30.27F
CENTENNIAL     PTSUNNY   69  50  50 VRB5      30.31F
BROOMFIELD     MOSUNNY   73  45  35 VRB3      30.31F
FORT COLLINS   MOSUNNY   79  48  34 S9        30.25F
LONGMONT       MOSUNNY   81  46  29 CALM      30.28S
$$

COZ041-046-047-076>085-087-088-312200-
...PIKES PEAK/PALMER DIVIDE AND SOUTHERN FOOTHILLS...

CITY           SKY/WX    TMP DP  RH WIND       PRES   REMARKS
COLO. SPRINGS  PTSUNNY   65  54  67 CALM      30.35F
A. F. ACADEMY  CLOUDY    59  55  88 SW3       30.37S
ELLICOTT       PTSUNNY   66  51  58 NE3       30.32F
FALCON         CLOUDY    63  53  70 W3        30.39S
FORT CARSON    DRIZZLE   65  57  75 W5        30.33F
LIMON          PTSUNNY   71  51  49 CALM      30.29F
MONUMENT HILL  CLOUDY    63  50  63 S3        30.38S
TRINIDAD       CLOUDY    69  53  56 NE8       30.29F
$$

COZ042>045-048>051-090-091-312200-
...NORTHEAST COLORADO...

CITY           SKY/WX    TMP DP  RH WIND       PRES   REMARKS
GREELEY ARPT   NOT AVBL
AKRON          SUNNY     77  45  32 W6        30.23F
BURLINGTON     PTSUNNY   79  47  32 S6        30.22F
WRAY             N/A     86  44  23 W3        30.18F
STERLING       MOSUNNY   82  55  39 S6        30.19F
HOLYOKE        SUNNY     86  46  25 N5        30.17S
FORT MORGAN    MOSUNNY   80  45  28 CALM      30.24F
$$

COZ086-089-092>099-312200-
...SOUTHEAST COLORADO...

CITY           SKY/WX    TMP DP  RH WIND       PRES   REMARKS
PUEBLO         MOSUNNY   72  51  47 CALM      30.26F
LA JUNTA       MOSUNNY   75  53  46 VRB3      30.23F
LAMAR          NOT AVBL
SPRINGFIELD      N/A     76  51  41 NE5       30.23F
$$


USA.gov is the U.S. government's official web portal to all federal, state and local government web resources and services.